Flood From: 18-02-2018 16:00 Until: 19-02-2018 16:00 warning for: Flood Level: Yellow info button

Although rather usual in this region, locally or potentially dangerous phenomena are expected. (such as local winds, summer thunderstorms, rising streams or high waves) Be aware and pay attention to the latest weather updates, especially if you carry out activities exposed to weather or close to a stream or shoreline. 


Meteo18 Weather Cam more information Meteo18 Weather Cam


Thunder radar more information blitzortung!


Rain radar more information rain snow radar


Visit our other weather sites:

Template documentation
and downloads

And another site



Weather Underground History page Text

Daily Summary for March 13, 2017 Units:  Metric    English   Both
« Previous Day
Next Day »
Daily Weekly Monthly Yearly Custom
  High: Low: Average:
Temperature: -17.8 °C -14 °C -11.8 °C
Dew Point: -17.8 °C -15.1 °C -14 °C
Humidity: Humidity % 51 % 77 %
Wind Speed: 0 km/h 0 km/h 12.9 km/h
Wind Gust: 0 km/h - -
Wind:- - SW
Pressure: 0 hPa 34462.7 hPa -
Precipitation: 0 mm    
Historical Graphs
 
 
Tabular Data for March 13, 2017
Time Temperature Dew Point Pressure Wind Wind Speed Wind Gust Humidity Rainfall Rate (Hourly)
-17.8 °C -17.8 °C 0 hPa Calm     Humidity % 0 mm
00:02 -12.2 °C -12.8 °C 34462.7 hPa West 10.3 km/h 28.5 km/h 92 % 0 mm
00:07 -12.2 °C -12.9 °C 34462.7 hPa WNW 23.3 km/h 28.5 km/h 91 % 0 mm
00:12 -12.2 °C -12.9 °C 34462.7 hPa WNW 5.1 km/h 28.5 km/h 91 % 0 mm
00:17 -12.2 °C -12.9 °C 34462.7 hPa WNW 5.1 km/h 28.5 km/h 92 % 0 mm
00:22 -12.3 °C -13.1 °C 34462.7 hPa NW 7.7 km/h 25.9 km/h 91 % 0 mm
00:32 -12.3 °C -13 °C 34476.3 hPa NW 7.7 km/h 25.9 km/h 92 % 0 mm
00:37 -12.4 °C -13.1 °C 34476.3 hPa WNW 18.2 km/h 25.9 km/h 92 % 0 mm
00:42 -12.4 °C -13.1 °C 34476.3 hPa NW 5.1 km/h 20.8 km/h 92 % 0 mm
00:52 -12.4 °C -13.1 °C 34486.4 hPa NW 12.9 km/h 28.5 km/h 92 % 0 mm
00:57 -12.4 °C -13.1 °C 34486.4 hPa NNW 10.3 km/h 28.5 km/h 92 % 0 mm
01:02 -12.4 °C -13.1 °C 34486.4 hPa NW 10.3 km/h 31.1 km/h 92 % 0 mm
01:12 -12.5 °C -13.2 °C 34486.4 hPa NW 7.7 km/h 31.1 km/h 92 % 0 mm
01:17 -12.6 °C -13.2 °C 34486.4 hPa WNW 12.9 km/h 33.6 km/h 92 % 0 mm
01:22 -12.6 °C -13.2 °C 34496.6 hPa NNW 15.6 km/h 33.6 km/h 92 % 0 mm
01:32 -12.6 °C -13.3 °C 34496.6 hPa NW 15.6 km/h 28.5 km/h 92 % 0 mm
01:37 -12.6 °C -13.2 °C 34496.6 hPa NNW 18.2 km/h 28.5 km/h 92 % 0 mm
01:42 -12.6 °C -13.2 °C 34510.1 hPa NNW 12.9 km/h 31.1 km/h 92 % 0 mm
01:47 -12.6 °C -13.3 °C 34510.1 hPa NNW 15.6 km/h 31.1 km/h 91 % 0 mm
01:52 -12.6 °C -13.3 °C 34510.1 hPa North 7.7 km/h 33.6 km/h 91 % 0 mm
01:57 -12.6 °C -13.3 °C 34510.1 hPa NW 18.2 km/h 33.6 km/h 91 % 0 mm
02:02 -12.6 °C -13.3 °C 34510.1 hPa NW 18.2 km/h 33.6 km/h 91 % 0 mm
02:07 -12.6 °C -13.3 °C 34510.1 hPa North 15.6 km/h 33.6 km/h 91 % 0 mm
02:12 -12.6 °C -13.3 °C 34510.1 hPa NNE 25.9 km/h 33.6 km/h 91 % 0 mm
02:17 -12.6 °C -13.4 °C 34520.3 hPa WNW 23.3 km/h 33.6 km/h 91 % 0 mm
02:22 -12.6 °C -13.4 °C 34520.3 hPa NW 28.5 km/h 36.2 km/h 91 % 0 mm
02:32 -12.6 °C -13.4 °C 34520.3 hPa North 18.2 km/h 41.4 km/h 91 % 0 mm
02:37 -12.6 °C -13.4 °C 34520.3 hPa NW 10.3 km/h 41.4 km/h 91 % 0 mm
02:42 -12.6 °C -13.4 °C 34520.3 hPa NNW 25.9 km/h 38.8 km/h 91 % 0 mm
02:52 -12.7 °C -13.4 °C 34533.8 hPa NNW 23.3 km/h 38.8 km/h 91 % 0 mm
03:02 -12.7 °C -13.4 °C 34533.8 hPa NNW 12.9 km/h 33.6 km/h 91 % 0 mm
03:07 -12.7 °C -13.5 °C 34544 hPa NNW 25.9 km/h 33.6 km/h 91 % 0 mm
03:12 -12.7 °C -13.5 °C 34533.8 hPa North 25.9 km/h 44.1 km/h 91 % 0 mm
03:17 -12.7 °C -13.5 °C 34544 hPa NNE 15.6 km/h 44.1 km/h 91 % 0 mm
03:22 -12.8 °C -13.6 °C 34544 hPa North 18.2 km/h 44.1 km/h 91 % 0 mm
03:32 -12.8 °C -13.6 °C 34554.1 hPa North 18.2 km/h 38.8 km/h 91 % 0 mm
03:37 -12.9 °C -13.7 °C 34554.1 hPa North 20.8 km/h 38.8 km/h 91 % 0 mm
03:42 -12.9 °C -13.8 °C 34554.1 hPa NNW 20.8 km/h 44.1 km/h 90 % 0 mm
03:47 -13 °C -13.8 °C 34554.1 hPa NNE 18.2 km/h 44.1 km/h 90 % 0 mm
03:52 -13.1 °C -13.9 °C 34554.1 hPa NNW 12.9 km/h 44.1 km/h 90 % 0 mm
03:57 -13.2 °C -14 °C 34554.1 hPa North 25.9 km/h 44.1 km/h 90 % 0 mm
04:02 -13.2 °C -13.9 °C 34554.1 hPa NNW 25.9 km/h 44.1 km/h 91 % 0 mm
04:12 -13.2 °C -13.9 °C 34554.1 hPa NW 12.9 km/h 38.8 km/h 91 % 0 mm
04:17 -13.2 °C -13.9 °C 34554.1 hPa NNW 18.2 km/h 41.4 km/h 91 % 0 mm
04:22 -13.2 °C -14 °C 34554.1 hPa NNW 23.3 km/h 41.4 km/h 91 % 0 mm
04:32 -13.2 °C -14 °C 34567.7 hPa North 18.2 km/h 41.4 km/h 91 % 0 mm
04:42 -13.3 °C -13.9 °C 34567.7 hPa NNE 31.1 km/h 36.2 km/h 92 % 0 mm
04:47 -13.3 °C -13.9 °C 34577.8 hPa NNE 31.1 km/h 44.1 km/h 92 % 0 mm
04:52 -13.3 °C -13.9 °C 34577.8 hPa North 33.6 km/h 44.1 km/h 92 % 0 mm
04:57 -13.3 °C -14 °C 34577.8 hPa NE 31.1 km/h 44.1 km/h 92 % 0 mm
05:02 -13.3 °C -14 °C 34577.8 hPa NNE 23.3 km/h 44.1 km/h 92 % 0 mm
05:12 -13.3 °C -14 °C 34591.4 hPa NNW 31.1 km/h 36.2 km/h 92 % 0 mm
05:17 -13.3 °C -14 °C 34591.4 hPa North 28.5 km/h 41.4 km/h 92 % 0 mm
05:22 -13.3 °C -14 °C 34591.4 hPa NNW 7.7 km/h 41.4 km/h 92 % 0 mm
05:32 -13.3 °C -14 °C 34591.4 hPa NW 12.9 km/h 36.2 km/h 92 % 0 mm
05:42 -13.3 °C -14 °C 34591.4 hPa North 18.2 km/h 38.8 km/h 92 % 0 mm
05:47 -13.3 °C -14 °C 34601.5 hPa NNW 20.8 km/h 38.8 km/h 92 % 0 mm
05:52 -13.4 °C -14.1 °C 34601.5 hPa NNW 18.2 km/h 38.8 km/h 92 % 0 mm
05:57 -13.4 °C -14.2 °C 34601.5 hPa WNW 7.7 km/h 38.8 km/h 91 % 0 mm
06:02 -13.4 °C -14.2 °C 34601.5 hPa NNW 10.3 km/h 38.8 km/h 91 % 0 mm
06:07 -13.4 °C -14.2 °C 34601.5 hPa NNW 15.6 km/h 41.4 km/h 91 % 0 mm
06:12 -13.4 °C -14.1 °C 34601.5 hPa NW 12.9 km/h 41.4 km/h 92 % 0 mm
06:17 -13.5 °C -14.2 °C 34611.7 hPa NNW 18.2 km/h 41.4 km/h 92 % 0 mm
06:22 -13.5 °C -14.3 °C 34611.7 hPa NNE 20.8 km/h 31.1 km/h 91 % 0 mm
06:32 -13.6 °C -14.3 °C 34611.7 hPa NNW 15.6 km/h 31.1 km/h 91 % 0 mm
06:37 -13.6 °C -14.4 °C 34611.7 hPa NNW 7.7 km/h 31.1 km/h 91 % 0 mm
06:42 -13.7 °C -14.3 °C 34625.2 hPa North 5.1 km/h 25.9 km/h 92 % 0 mm
06:47 -13.7 °C -14.4 °C 34625.2 hPa North 10.3 km/h 25.9 km/h 92 % 0 mm
06:52 -13.7 °C -14.4 °C 34625.2 hPa NNW 7.7 km/h 15.6 km/h 92 % 0 mm
06:57 -13.8 °C -14.4 °C 34625.2 hPa NNW 5.1 km/h 15.6 km/h 92 % 0 mm
07:02 -13.8 °C -14.5 °C 34635.4 hPa NNW 5.1 km/h 15.6 km/h 92 % 0 mm
07:12 -13.9 °C -14.6 °C 34645.6 hPa NNE 5.1 km/h 10.3 km/h 93 % 0 mm
07:17 -13.9 °C -14.6 °C 34645.6 hPa NNW 2.6 km/h 10.3 km/h 93 % 0 mm
07:22 -14 °C -14.6 °C 34645.6 hPa North 5.1 km/h 10.3 km/h 93 % 0 mm
07:32 -14 °C -14.6 °C 34645.6 hPa Calm   10.3 km/h 93 % 0 mm
07:42 -13.9 °C -14.6 °C 34645.6 hPa NE 5.1 km/h 10.3 km/h 93 % 0 mm
07:52 -13.9 °C -14.5 °C 34659.1 hPa Calm   15.6 km/h 93 % 0 mm
07:57 -13.9 °C -14.6 °C 34659.1 hPa Calm   12.9 km/h 92 % 0 mm
08:02 -13.9 °C -14.6 °C 34669.3 hPa Calm   12.9 km/h 92 % 0 mm
08:07 -14 °C -14.7 °C 34669.3 hPa Calm   5.1 km/h 92 % 0 mm
08:12 -13.9 °C -14.6 °C 34669.3 hPa Calm   5.1 km/h 93 % 0 mm
08:17 -13.9 °C -14.5 °C 34669.3 hPa WNW 2.6 km/h 5.1 km/h 93 % 0 mm
08:22 -13.8 °C -14.4 °C 34669.3 hPa NW 2.6 km/h 5.1 km/h 93 % 0 mm
08:32 -13.6 °C -14.2 °C 34682.8 hPa Calm   5.1 km/h 92 % 0 mm
08:42 -13.4 °C -14.2 °C 34682.8 hPa NW 2.6 km/h 5.1 km/h 91 % 0 mm
08:52 -13.3 °C -14.2 °C 34693 hPa North 2.6 km/h 12.9 km/h 90 % 0 mm
09:02 -13.2 °C -14.1 °C 34693 hPa West 2.6 km/h 12.9 km/h 89 % 0 mm
09:12 -13.1 °C -14.1 °C 34703.1 hPa NW 5.1 km/h 12.9 km/h 89 % 0 mm
09:17 -13.1 °C -14.2 °C 34703.1 hPa NW 7.7 km/h 12.9 km/h 88 % 0 mm
09:22 -13.1 °C -14.1 °C 34703.1 hPa NW 5.1 km/h 12.9 km/h 88 % 0 mm
09:32 -13 °C -14.1 °C 34703.1 hPa NNW 5.1 km/h 12.9 km/h 88 % 0 mm
09:42 -12.9 °C -14 °C 34716.7 hPa NW 7.7 km/h 15.6 km/h 87 % 0 mm
09:47 -12.7 °C -13.8 °C 34716.7 hPa NNW 5.1 km/h 15.6 km/h 87 % 0 mm
09:52 -12.7 °C -13.9 °C 34716.7 hPa Calm   15.6 km/h 86 % 0 mm
09:57 -12.6 °C -13.8 °C 34716.7 hPa WNW 2.6 km/h 15.6 km/h 86 % 0 mm
10:02 -12.5 °C -13.8 °C 34716.7 hPa NW 5.1 km/h 12.9 km/h 85 % 0 mm
10:12 -12.4 °C -13.8 °C 34726.8 hPa NW 10.3 km/h 18.2 km/h 85 % 0 mm
10:17 -12.4 °C -13.8 °C 34726.8 hPa NW 7.7 km/h 23.3 km/h 85 % 0 mm
10:22 -12.4 °C -13.9 °C 34740.4 hPa NNW 10.3 km/h 23.3 km/h 84 % 0 mm
10:27 -12.4 °C -13.9 °C 34740.4 hPa NW 5.1 km/h 23.3 km/h 84 % 0 mm
10:32 -12.4 °C -13.9 °C 34740.4 hPa NW 7.7 km/h 20.8 km/h 84 % 0 mm
10:37 -12.4 °C -13.8 °C 34740.4 hPa NW 15.6 km/h 20.8 km/h 85 % 0 mm
10:42 -12.3 °C -13.7 °C 34740.4 hPa NW 10.3 km/h 23.3 km/h 85 % 0 mm
10:47 -12.2 °C -13.7 °C 34740.4 hPa NNW 12.9 km/h 23.3 km/h 83 % 0 mm
10:52 -12.1 °C -13.7 °C 34740.4 hPa WNW 10.3 km/h 23.3 km/h 82 % 0 mm
11:02 -11.8 °C -13.4 °C 34750.5 hPa NNW 15.6 km/h 20.8 km/h 83 % 0 mm
11:12 -11.6 °C -13.3 °C 34750.5 hPa Calm   18.2 km/h 81 % 0 mm
11:22 -11.3 °C -13.2 °C 34750.5 hPa NNE 5.1 km/h 18.2 km/h 79 % 0 mm
11:32 -11.3 °C -13.3 °C 34760.7 hPa NNW 15.6 km/h 23.3 km/h 78 % 0 mm
11:37 -11.2 °C -13.4 °C 34760.7 hPa NW 20.8 km/h 23.3 km/h 77 % 0 mm
11:42 -11.2 °C -13.2 °C 34760.7 hPa ENE 7.7 km/h 20.8 km/h 78 % 0 mm
11:47 -11.1 °C -13.4 °C 34760.7 hPa NW 10.3 km/h 23.3 km/h 75 % 0 mm
11:57 -10.8 °C -13.2 °C 34774.2 hPa North 18.2 km/h 25.9 km/h 75 % 0 mm
12:02 -10.8 °C -13.3 °C 34774.2 hPa NW 20.8 km/h 25.9 km/h 74 % 0 mm
12:12 -10.7 °C -13.4 °C 34774.2 hPa NNW 7.7 km/h 31.1 km/h 72 % 0 mm
12:17 -10.5 °C -12.9 °C 34774.2 hPa NW 10.3 km/h 31.1 km/h 75 % 0 mm
12:22 -10.5 °C -13.1 °C 34784.4 hPa NNE 15.6 km/h 31.1 km/h 73 % 0 mm
12:32 -10.4 °C -13 °C 34784.4 hPa North 12.9 km/h 33.6 km/h 73 % 0 mm
12:42 -10.4 °C -13.4 °C 34784.4 hPa NNW 12.9 km/h 31.1 km/h 70 % 0 mm
12:52 -10.3 °C -13.3 °C 34784.4 hPa NNW 33.6 km/h 41.4 km/h 70 % 0 mm
12:57 -10.3 °C -13.4 °C 34784.4 hPa NNW 23.3 km/h 41.4 km/h 69 % 0 mm
13:02 -10.2 °C -13.3 °C 34784.4 hPa North 20.8 km/h 41.4 km/h 69 % 0 mm
13:12 -10.1 °C -13.6 °C 34774.2 hPa North 15.6 km/h 41.4 km/h 66 % 0 mm
13:17 -9.9 °C -13.4 °C 34774.2 hPa NW 12.9 km/h 41.4 km/h 66 % 0 mm
13:22 -10 °C -13.6 °C 34784.4 hPa NNE 28.5 km/h 41.4 km/h 65 % 0 mm
13:27 -10 °C -13.5 °C 34784.4 hPa NNW 7.7 km/h 41.4 km/h 66 % 0 mm
13:32 -9.9 °C -13.6 °C 34784.4 hPa NE 20.8 km/h 41.4 km/h 64 % 0 mm
13:37 -9.9 °C -13.4 °C 34774.2 hPa NNW 15.6 km/h 41.4 km/h 66 % 0 mm
13:42 -9.9 °C -13.5 °C 34774.2 hPa WNW 15.6 km/h 41.4 km/h 65 % 0 mm
13:47 -9.8 °C -13.6 °C 34774.2 hPa NNE 12.9 km/h 44.1 km/h 64 % 0 mm
13:52 -9.8 °C -13.4 °C 34784.4 hPa NNW 25.9 km/h 44.1 km/h 65 % 0 mm
13:57 -9.8 °C -13.5 °C 34774.2 hPa NE 15.6 km/h 44.1 km/h 64 % 0 mm
14:02 -9.7 °C -13.6 °C 34784.4 hPa NNE 15.6 km/h 38.8 km/h 63 % 0 mm
14:12 -9.6 °C -13.2 °C 34784.4 hPa North 28.5 km/h 33.6 km/h 65 % 0 mm
14:17 -9.6 °C -13.3 °C 34784.4 hPa North 31.1 km/h 33.6 km/h 64 % 0 mm
14:22 -9.6 °C -13.4 °C 34784.4 hPa NNW 15.6 km/h 41.4 km/h 63 % 0 mm
14:27 -9.6 °C -13.7 °C 34784.4 hPa NE 7.7 km/h 41.4 km/h 61 % 0 mm
14:32 -9.6 °C -13.9 °C 34784.4 hPa NNW 20.8 km/h 41.4 km/h 60 % 0 mm
14:42 -9.6 °C -13.7 °C 34797.9 hPa WNW 20.8 km/h 51.8 km/h 61 % 0 mm
14:52 -9.6 °C -13.9 °C 34797.9 hPa North 18.2 km/h 51.8 km/h 59 % 0 mm
14:57 -9.6 °C -13.6 °C 34797.9 hPa NNW 28.5 km/h 46.7 km/h 62 % 0 mm
15:02 -9.5 °C -13.4 °C 34797.9 hPa NNE 18.2 km/h 46.7 km/h 63 % 0 mm
15:12 -9.4 °C -13.6 °C 34797.9 hPa NNW 25.9 km/h 46.7 km/h 61 % 0 mm
15:22 -9.5 °C -13.9 °C 34797.9 hPa NNW 20.8 km/h 46.7 km/h 59 % 0 mm
15:32 -9.4 °C -14 °C 34797.9 hPa NNW 15.6 km/h 46.7 km/h 58 % 0 mm
15:42 -9.3 °C -13.5 °C 34797.9 hPa NNW 18.2 km/h 38.8 km/h 61 % 0 mm
15:47 -9.3 °C -14.1 °C 34797.9 hPa North 28.5 km/h 33.6 km/h 57 % 0 mm
15:52 -9.3 °C -13.9 °C 34808.1 hPa NNW 18.2 km/h 36.2 km/h 58 % 0 mm
15:57 -9.3 °C -13.8 °C 34808.1 hPa NNW 12.9 km/h 38.8 km/h 59 % 0 mm
16:02 -9.4 °C -14.2 °C 34808.1 hPa NNW 20.8 km/h 38.8 km/h 56 % 0 mm
16:07 -9.3 °C -14.1 °C 34808.1 hPa North 25.9 km/h 38.8 km/h 57 % 0 mm
16:12 -9.3 °C -14.2 °C 34808.1 hPa WNW 20.8 km/h 38.8 km/h 56 % 0 mm
16:17 -9.3 °C -13.8 °C 34808.1 hPa North 18.2 km/h 38.8 km/h 58 % 0 mm
16:22 -9.2 °C -13.7 °C 34808.1 hPa NNE 15.6 km/h 38.8 km/h 59 % 0 mm
16:32 -9.3 °C -14 °C 34818.2 hPa NNW 10.3 km/h 36.2 km/h 57 % 0 mm
16:42 -9.3 °C -13.6 °C 34818.2 hPa NNE 15.6 km/h 36.2 km/h 60 % 0 mm
16:47 -9.3 °C -14.1 °C 34818.2 hPa NNW 18.2 km/h 36.2 km/h 57 % 0 mm
16:52 -9.3 °C -13.9 °C 34818.2 hPa NNE 20.8 km/h 31.1 km/h 58 % 0 mm
16:57 -9.3 °C -13.8 °C 34818.2 hPa NNE 18.2 km/h 33.6 km/h 59 % 0 mm
17:02 -9.3 °C -14.8 °C 34831.8 hPa NNE 20.8 km/h 38.8 km/h 52 % 0 mm
17:07 -9.3 °C -14.6 °C 34831.8 hPa North 15.6 km/h 38.8 km/h 53 % 0 mm
17:12 -9.3 °C -14.9 °C 34831.8 hPa NNW 25.9 km/h 38.8 km/h 51 % 0 mm
17:17 -9.4 °C -15 °C 34831.8 hPa NNE 15.6 km/h 41.4 km/h 51 % 0 mm
17:22 -9.4 °C -14.8 °C 34831.8 hPa North 28.5 km/h 41.4 km/h 52 % 0 mm
17:32 -9.4 °C -14.9 °C 34831.8 hPa North 15.6 km/h 38.8 km/h 52 % 0 mm
17:37 -9.5 °C -14.6 °C 34831.8 hPa NNE 7.7 km/h 38.8 km/h 54 % 0 mm
17:42 -9.6 °C -14.8 °C 34831.8 hPa North 12.9 km/h 33.6 km/h 53 % 0 mm
17:47 -9.6 °C -14.6 °C 34841.9 hPa North 5.1 km/h 36.2 km/h 55 % 0 mm
17:52 -9.6 °C -14.9 °C 34841.9 hPa NNE 7.7 km/h 36.2 km/h 53 % 0 mm
18:02 -9.8 °C -15.1 °C 34841.9 hPa NE 12.9 km/h 33.6 km/h 53 % 0 mm
18:07 -9.8 °C -14.8 °C 34852.1 hPa NNE 12.9 km/h 41.4 km/h 55 % 0 mm
18:12 -9.9 °C -14.8 °C 34852.1 hPa NNW 10.3 km/h 41.4 km/h 55 % 0 mm
18:17 -9.9 °C -14.9 °C 34852.1 hPa NE 10.3 km/h 41.4 km/h 55 % 0 mm
18:22 -10.1 °C -14.8 °C 34852.1 hPa NNW 15.6 km/h 31.1 km/h 56 % 0 mm
18:27 -10.1 °C -14.9 °C 34852.1 hPa North 7.7 km/h 25.9 km/h 56 % 0 mm
18:32 -10.2 °C -14.8 °C 34865.6 hPa NW 2.6 km/h 25.9 km/h 57 % 0 mm
18:37 -10.2 °C -14.9 °C 34865.6 hPa NNW 12.9 km/h 23.3 km/h 57 % 0 mm
18:42 -10.3 °C -14.9 °C 34865.6 hPa NNW 10.3 km/h 23.3 km/h 57 % 0 mm
18:52 -10.4 °C -14.9 °C 34865.6 hPa North 7.7 km/h 23.3 km/h 58 % 0 mm
19:02 -10.6 °C -15.1 °C 34875.8 hPa North 10.3 km/h 18.2 km/h 58 % 0 mm
19:07 -10.7 °C -15 °C 34875.8 hPa NE 7.7 km/h 20.8 km/h 59 % 0 mm
19:17 -10.8 °C -15 °C 34875.8 hPa North 10.3 km/h 18.2 km/h 60 % 0 mm
19:22 -10.9 °C -14.9 °C 34875.8 hPa NNW 5.1 km/h 18.2 km/h 61 % 0 mm
19:32 -11 °C -14.9 °C 34875.8 hPa NNE 2.6 km/h 12.9 km/h 62 % 0 mm
19:37 -11.1 °C -15 °C 34889.3 hPa NNE 5.1 km/h 12.9 km/h 62 % 0 mm
19:42 -11.1 °C -15.1 °C 34889.3 hPa North 2.6 km/h 12.9 km/h 62 % 0 mm
19:47 -11.2 °C -14.9 °C 34889.3 hPa NNW 5.1 km/h 12.9 km/h 63 % 0 mm
19:52 -11.2 °C -15 °C 34889.3 hPa North 5.1 km/h 12.9 km/h 63 % 0 mm
20:02 -11.4 °C -15.1 °C 34889.3 hPa NNW 2.6 km/h 12.9 km/h 64 % 0 mm
20:07 -11.4 °C -14.9 °C 34899.5 hPa NNE 2.6 km/h 10.3 km/h 65 % 0 mm
20:12 -11.6 °C -14.9 °C 34899.5 hPa North 5.1 km/h 7.7 km/h 66 % 0 mm
20:17 -11.6 °C -14.9 °C 34899.5 hPa North 5.1 km/h 7.7 km/h 67 % 0 mm
20:22 -11.7 °C -14.9 °C 34899.5 hPa NNE 5.1 km/h 7.7 km/h 67 % 0 mm
20:32 -11.6 °C -14.8 °C 34909.7 hPa NNE 10.3 km/h 15.6 km/h 68 % 0 mm
20:37 -11.6 °C -14.8 °C 34909.7 hPa NNE 10.3 km/h 15.6 km/h 68 % 0 mm
20:42 -11.6 °C -14.7 °C 34909.7 hPa NNE 12.9 km/h 15.6 km/h 69 % 0 mm
20:47 -11.6 °C -14.7 °C 34909.7 hPa NNE 2.6 km/h 18.2 km/h 69 % 0 mm
20:57 -11.7 °C -14.8 °C 34909.7 hPa North 7.7 km/h 18.2 km/h 69 % 0 mm
21:02 -11.8 °C -14.7 °C 34909.7 hPa NNE 7.7 km/h 15.6 km/h 70 % 0 mm
21:07 -11.9 °C -14.7 °C 34909.7 hPa North 2.6 km/h 15.6 km/h 71 % 0 mm
21:12 -12.1 °C -14.7 °C 34909.7 hPa NNW 2.6 km/h 10.3 km/h 72 % 0 mm
21:17 -12 °C -14.8 °C 34923.2 hPa NNW 2.6 km/h 7.7 km/h 71 % 0 mm
21:27 -11.9 °C -14.8 °C 34923.2 hPa NNW 7.7 km/h 12.9 km/h 70 % 0 mm
21:32 -11.9 °C -14.9 °C 34923.2 hPa NNW 7.7 km/h 12.9 km/h 69 % 0 mm
21:37 -11.9 °C -14.9 °C 34923.2 hPa North 12.9 km/h 15.6 km/h 69 % 0 mm
21:42 -11.9 °C -14.9 °C 34933.4 hPa North 7.7 km/h 20.8 km/h 69 % 0 mm
21:47 -12 °C -15 °C 34933.4 hPa NNE 12.9 km/h 20.8 km/h 69 % 0 mm
21:52 -11.9 °C -14.8 °C 34946.9 hPa NNW 12.9 km/h 25.9 km/h 70 % 0 mm
21:57 -12 °C -14.8 °C 34946.9 hPa NNE 20.8 km/h 25.9 km/h 71 % 0 mm
22:02 -11.9 °C -14.5 °C 34946.9 hPa NNW 10.3 km/h 25.9 km/h 73 % 0 mm
22:07 -11.8 °C -14.3 °C 34946.9 hPa NNE 7.7 km/h 25.9 km/h 74 % 0 mm
22:12 -11.8 °C -14.2 °C 34946.9 hPa North 10.3 km/h 31.1 km/h 75 % 0 mm
22:17 -11.9 °C -14.2 °C 34946.9 hPa NE 12.9 km/h 31.1 km/h 76 % 0 mm
22:22 -12 °C -14.2 °C 34946.9 hPa North 23.3 km/h 31.1 km/h 77 % 0 mm
22:32 -12.1 °C -14 °C 34946.9 hPa NE 10.3 km/h 33.6 km/h 79 % 0 mm
22:37 -12.1 °C -14 °C 34957.1 hPa NE 15.6 km/h 33.6 km/h 79 % 0 mm
22:42 -12.1 °C -14.1 °C 34957.1 hPa NNE 20.8 km/h 33.6 km/h 79 % 0 mm
22:47 -12.1 °C -13.9 °C 34946.9 hPa NNW 15.6 km/h 33.6 km/h 80 % 0 mm
22:52 -12.2 °C -13.9 °C 34957.1 hPa NE 7.7 km/h 28.5 km/h 81 % 0 mm
22:57 -12.2 °C -13.8 °C 34957.1 hPa North 2.6 km/h 33.6 km/h 82 % 0 mm
23:02 -12.3 °C -13.9 °C 34957.1 hPa NNW 7.7 km/h 33.6 km/h 82 % 0 mm
23:07 -12.3 °C -13.8 °C 34957.1 hPa NW 15.6 km/h 33.6 km/h 83 % 0 mm
23:12 -12.3 °C -13.8 °C 34957.1 hPa NNE 10.3 km/h 28.5 km/h 83 % 0 mm
23:17 -12.4 °C -13.8 °C 34957.1 hPa NNE 7.7 km/h 28.5 km/h 84 % 0 mm
23:22 -12.4 °C -13.9 °C 34967.2 hPa NW 2.6 km/h 28.5 km/h 84 % 0 mm
23:27 -12.5 °C -13.8 °C 34967.2 hPa NNE 10.3 km/h 28.5 km/h 85 % 0 mm
23:32 -12.6 °C -13.9 °C 34957.1 hPa NNE 18.2 km/h 28.5 km/h 85 % 0 mm
23:37 -12.6 °C -13.9 °C 34967.2 hPa NNE 7.7 km/h 28.5 km/h 85 % 0 mm
23:42 -12.6 °C -13.9 °C 34967.2 hPa NE 2.6 km/h 20.8 km/h 85 % 0 mm
23:47 -12.7 °C -13.9 °C 34967.2 hPa North 5.1 km/h 20.8 km/h 86 % 0 mm
23:52 -12.7 °C -13.9 °C 34967.2 hPa NNE 5.1 km/h 23.3 km/h 86 % 0 mm
23:57 -12.8 °C -14 °C 34980.8 hPa NNE 5.1 km/h 23.3 km/h 86 % 0 mm
Meteo18
Compliments of Weather Underground - 4 mb

Script developed by  Jim McMurry - jmcmurry@mwt.net Adapted for the template by  Wim van der Kuil - Leuven-Template.eu

You find our weather info also at:

European Weather Network

Weather Underground

Equipment we use:

Weather-station
Davis Vue

Weather-program
Meteobridge

Weather-server
Raspberry PI 2 B+

Provider
1 and 1

Davis Vue

Meteobridge

Raspberry PI 2 B+

1 and 1